TimeCST,TemperatureF,Dew PointF,Humidity,Sea Level PressureIn,VisibilityMPH,Wind Direction,Wind SpeedMPH,Gust SpeedMPH,PrecipitationIn,Events,Conditions,WindDirDegrees,DateUTC
12:54 AM,63.0,57.0,81,30.04,10.0,SSE,12.7,-,N/A,,Scattered Clouds,160,2013-01-29 06:54:00
1:54 AM,61.0,57.0,87,30.02,9.0,South,11.5,-,N/A,,Partly Cloudy,170,2013-01-29 07:54:00
2:54 AM,61.0,57.0,87,29.99,8.0,SSE,9.2,-,N/A,,Scattered Clouds,160,2013-01-29 08:54:00
3:42 AM,62.6,57.2,82,29.99,9.0,South,8.1,-,N/A,,Mostly Cloudy,170,2013-01-29 09:42:00
3:54 AM,61.0,57.9,90,29.99,7.0,South,11.5,-,N/A,,Overcast,180,2013-01-29 09:54:00
4:13 AM,62.6,57.2,82,29.99,7.0,South,12.7,-,N/A,,Overcast,180,2013-01-29 10:13:00
4:30 AM,62.6,57.2,82,30.00,7.0,SSW,11.5,-,N/A,,Overcast,200,2013-01-29 10:30:00
4:54 AM,63.0,59.0,87,30.00,7.0,SSW,15.0,24.2,N/A,,Overcast,210,2013-01-29 10:54:00
5:20 AM,64.4,59.0,83,30.01,8.0,SSW,15.0,24.2,N/A,,Overcast,210,2013-01-29 11:20:00
5:54 AM,64.0,57.9,80,30.01,9.0,SSW,16.1,23.0,N/A,,Overcast,200,2013-01-29 11:54:00
6:44 AM,64.4,59.0,83,30.01,9.0,South,12.7,-,N/A,,Overcast,190,2013-01-29 12:44:00
6:54 AM,64.0,59.0,84,30.00,9.0,SSW,11.5,-,N/A,,Overcast,200,2013-01-29 12:54:00
7:54 AM,64.9,59.0,81,29.99,9.0,South,15.0,-,N/A,,Overcast,180,2013-01-29 13:54:00
8:54 AM,66.0,59.0,78,29.96,8.0,South,18.4,-,N/A,,Overcast,180,2013-01-29 14:54:00
9:54 AM,68.0,60.1,76,29.94,10.0,South,18.4,26.5,N/A,,Overcast,190,2013-01-29 15:54:00
10:01 AM,68.0,60.8,78,29.94,10.0,South,20.7,-,N/A,,Overcast,190,2013-01-29 16:01:00
10:35 AM,69.8,59.0,68,29.93,10.0,SSW,17.3,25.3,N/A,,Overcast,200,2013-01-29 16:35:00
10:54 AM,70.0,59.0,68,29.91,10.0,SSW,20.7,28.8,N/A,,Overcast,200,2013-01-29 16:54:00
11:54 AM,72.0,57.9,61,29.86,10.0,SSW,24.2,34.5,N/A,,Overcast,200,2013-01-29 17:54:00
12:54 PM,73.0,57.9,59,29.82,10.0,SSW,20.7,27.6,N/A,,Overcast,200,2013-01-29 18:54:00
1:54 PM,73.9,57.9,57,29.78,10.0,SSW,18.4,27.6,N/A,,Mostly Cloudy,200,2013-01-29 19:54:00
2:54 PM,73.9,57.9,57,29.74,10.0,SSW,17.3,25.3,N/A,,Overcast,200,2013-01-29 20:54:00
3:54 PM,75.0,57.9,55,29.70,10.0,South,18.4,28.8,N/A,,Mostly Cloudy,190,2013-01-29 21:54:00
4:54 PM,75.0,57.9,55,29.69,10.0,South,16.1,21.9,N/A,,Overcast,180,2013-01-29 22:54:00
5:54 PM,73.9,57.0,55,29.67,10.0,South,15.0,25.3,N/A,,Overcast,170,2013-01-29 23:54:00
6:54 PM,73.9,57.9,57,29.62,10.0,SSE,16.1,28.8,N/A,,Overcast,160,2013-01-30 00:54:00
7:54 PM,73.9,60.1,62,29.57,10.0,South,26.5,33.4,N/A,,Overcast,170,2013-01-30 01:54:00
8:54 PM,71.1,62.1,73,29.55,10.0,SSE,25.3,39.1,0.00,,Overcast,160,2013-01-30 02:54:00
9:54 PM,71.1,62.1,73,29.49,10.0,South,25.3,32.2,N/A,,Overcast,170,2013-01-30 03:54:00
10:14 PM,71.6,62.6,73,29.50,9.0,South,31.1,40.3,0.00,Rain-Thunderstorm,Light Thunderstorms and Rain,170,2013-01-30 04:14:00
10:54 PM,69.1,64.0,84,29.47,4.0,South,25.3,38.0,0.06,Rain-Thunderstorm,Thunderstorms and Rain,180,2013-01-30 04:54:00
11:11 PM,69.8,62.6,78,29.44,8.0,South,28.8,40.3,0.01,Rain-Thunderstorm,Light Thunderstorms and Rain,180,2013-01-30 05:11:00
11:24 PM,62.6,60.8,94,29.53,8.0,SW,25.3,61.0,0.55,Rain-Thunderstorm,Heavy Thunderstorms and Rain,230,2013-01-30 05:24:00
11:32 PM,62.6,62.6,100,29.54,0.8,WSW,26.5,38.0,0.77,Rain-Thunderstorm,Heavy Thunderstorms and Rain,240,2013-01-30 05:32:00
11:41 PM,62.6,62.6,100,29.52,0.5,SW,21.9,34.5,1.38,Fog-Rain-Thunderstorm,Heavy Thunderstorms and Rain,220,2013-01-30 05:41:00
11:54 PM,64.0,63.0,96,29.49,0.8,SW,21.9,38.0,1.97,Rain-Thunderstorm,Heavy Thunderstorms and Rain,230,2013-01-30 05:54:00